Tracking 19485 objects as of 21-Jan-2019
HD Live streaming from Space Station
objects crossing your sky now

SL-12 R/B(2)

Track SL-12 R/B(2) now!


NORAD ID: 25318
Int'l Code: 1998-025D
Perigee: 35,729.7 km
Apogee: 35,974.7 km
Inclination: 12.8 °
Period: 1,439.1 minutes
Semi major axis: 42223 km
RCS: 1.1651 m2 (large)
Launch date: April 29, 1998
Source: Commonwealth of Independent States (former USSR) (CIS)
Launch site: TYURATAM MISSILE AND SPACE COMPLEX (TTMTR)

Note: This is a ROCKET BODY
aabbcc
Your satellite tracking list
Your tracking list is empty




NASA's NSSDC Master Catalog

Two Line Element Set (TLE):
1 25318U 98025D   19020.88267410 -.00000322 +00000-0 +00000-0 0  9999
2 25318 012.8492 024.1201 0029005 055.7346 138.8085 01.00063658075715
Source of the keplerian elements: AFSPC